Weather History for KDAW - May, 2014

Change the Weather History Date:

Monday, May 26, 2014

  Actual Average (KSFM) Record (KSFM)
Temperature  
Mean Temperature 62 °F -  
Max Temperature 75 °F 65 °F 84 °F (2007)
Min Temperature 50 °F 43 °F 37 °F (2001)
Degree Days  
Heating Degree Days 2    
Growing Degree Days 12 (Base 50)    
Moisture  
Dew Point 51 °F    
Average Humidity 61    
Maximum Humidity 92    
Minimum Humidity 43    
Precipitation  
Precipitation 0.00 in - - ()
Sea Level Pressure  
Sea Level Pressure 29.83 in    
Wind  
Wind Speed 3 mph (WNW)    
Max Wind Speed 17 mph    
Max Gust Speed 29 mph    
Visibility 10 miles    
Events Rain    
Averages and records for this station are not official NWS values.
T = Trace of Precipitation, MM = Missing Value Source: NWS Daily Summary

Daily Weather History Graph

Daily Weather History Graph

Search for Another Location

Airport or City:

Trip Planner

Search our weather history database for the weather conditions in past years. The results will help you decide how hot, cold, wet, or windy it might be!

Date:

Astronomy

May. 26, 2014 Rise Set
Actual Time 5:10 AM EDT 8:11 PM EDT
Civil Twilight 4:35 AM EDT 8:46 PM EDT
Nautical Twilight 3:52 AM EDT 9:29 PM EDT
Astronomical Twilight 3:00 AM EDT 10:21 PM EDT
Moon 3:54 AM EDT (5/26) 6:07 PM EDT (5/26)
Length of Visible Light 16h 10m
Length of Day
15h 01m
Waning Crescent, 5% of the Moon is Illuminated
May 26
Waning Crescent
May 28
New
Jun 5
First Quarter
Jun 13
Full
Jun 19
Last Quarter

Hourly Weather History & Observations

Time (EDT) Temp. Dew Point Humidity Pressure Visibility Wind Dir Wind Speed Gust Speed Precip Events Conditions
12:51 AM 51.1 °F 48.9 °F 92% 29.94 in 10.0 mi Calm Calm - N/A   Clear
1:51 AM 50.0 °F 46.9 °F 89% 29.93 in 10.0 mi Calm Calm - N/A   Clear
3:51 AM 53.1 °F 50.0 °F 89% 29.89 in 10.0 mi Calm Calm - N/A   Scattered Clouds
4:51 AM 51.1 °F 48.9 °F 92% 29.88 in 10.0 mi Calm Calm - N/A   Partly Cloudy
5:51 AM 55.9 °F 50.0 °F 80% 29.88 in 10.0 mi Calm Calm - N/A   Clear
6:51 AM 59.0 °F 48.9 °F 69% 29.89 in 10.0 mi Variable 3.5 mph - N/A   Partly Cloudy
7:51 AM 60.1 °F 51.1 °F 72% 29.89 in 10.0 mi Variable 3.5 mph - 0.00 in Rain Light Rain
8:51 AM 64.0 °F 53.1 °F 67% 29.88 in 10.0 mi Variable 4.6 mph - 0.00 in   Mostly Cloudy
9:51 AM 66.9 °F 53.1 °F 61% 29.85 in 10.0 mi Variable 5.8 mph - N/A   Mostly Cloudy
10:51 AM 72.0 °F 54.0 °F 53% 29.84 in 10.0 mi WNW 12.7 mph 24.2 mph N/A   Clear
11:51 AM 73.0 °F 54.0 °F 51% 29.83 in 10.0 mi WNW 9.2 mph - N/A   Clear
12:51 PM 75.9 °F 52.0 °F 43% 29.80 in 10.0 mi WNW 17.3 mph 28.8 mph N/A   Clear
1:51 PM 73.9 °F 54.0 °F 50% 29.80 in 10.0 mi Variable 4.6 mph - N/A   Clear
3:51 PM 75.0 °F 52.0 °F 44% 29.77 in 10.0 mi West 8.1 mph 19.6 mph N/A   Clear
4:51 PM 75.9 °F 52.0 °F 43% 29.76 in 10.0 mi Variable 4.6 mph - N/A   Clear
5:51 PM 75.0 °F 51.1 °F 43% 29.75 in 10.0 mi Variable 4.6 mph - N/A   Partly Cloudy
6:51 PM 75.0 °F 52.0 °F 44% 29.76 in 10.0 mi West 4.6 mph - N/A   Overcast
7:51 PM 72.0 °F 53.1 °F 51% 29.78 in 10.0 mi Calm Calm - N/A   Mostly Cloudy
8:51 PM 72.0 °F 50.0 °F 46% 29.78 in 10.0 mi Variable 3.5 mph - N/A   Overcast
9:51 PM 70.0 °F 50.0 °F 49% 29.78 in 10.0 mi North 8.1 mph - N/A   Mostly Cloudy
10:51 PM 69.1 °F 52.0 °F 54% 29.79 in 10.0 mi NW 5.8 mph - N/A   Overcast
11:51 PM 66.9 °F 53.1 °F 61% 29.79 in 10.0 mi WNW 5.8 mph - N/A   Overcast